Regional Weather Roundup
Issued by NWS

Home | Current Version | Previous Version | Graphics & Text | Print | Product List | Glossary On
Versions: 1 2 3 4 5 6 7 8 9 10 11 12 13 14 15 16 17 18 19 20 21 22 23 24 25 26 27
000
ASUS45 KPSR 180010
RWRAZ

ARIZONA HOURLY REGIONAL WEATHER ROUNDUP
NATIONAL WEATHER SERVICE PHOENIX AZ
500 PM MST WED JAN 17 2018

NOTE: FAIR INDICATES FEW OR NO CLOUDS BELOW 12,000 FEET WITH NO
SIGNIFICANT WEATHER AND/OR OBSTRUCTIONS TO VISIBILITY.

AZZ001>003-036-180100-
NORTHWEST ARIZONA

CITY           SKY/WX    TMP DP  RH WIND       PRES   REMARKS
BULLHEAD CITY  PTCLDY    72  32  23 N20G26    30.16R
KINGMAN        CLEAR     62  31  31 N8        30.23R
6HR MIN TEMP:  55; 6HR MAX TEMP:  66;

$$

AZZ004>008-015-016-018-180100-
NORTH CENTRAL ARIZONA

CITY           SKY/WX    TMP DP  RH WIND       PRES   REMARKS
GRAND CANYON   CLEAR     48  24  39 NE10      30.34R
6HR MIN TEMP:  47; 6HR MAX TEMP:  54;

WILLIAMS       CLEAR     50  19  29 NE7G15    30.29R
PRESCOTT       CLEAR     61  23  23 NW7       30.23S
6HR MIN TEMP:  49; 6HR MAX TEMP:  62;

FLAGSTAFF      CLEAR     46  18  32 E8        30.31S
6HR MIN TEMP:  44; 6HR MAX TEMP:  50;

PAYSON         CLEAR     57  16  19 NE14      30.24S
PAGE           CLEAR     50  18  28 N5        30.31R
6HR MIN TEMP:  44; 6HR MAX TEMP:  52;

$$

AZZ009>014-017-180100-
NORTHEAST ARIZONA

CITY           SKY/WX    TMP DP  RH WIND       PRES   REMARKS
WINSLOW        CLEAR     53  16  23 W6        30.29F
6HR MIN TEMP:  43; 6HR MAX TEMP:  55;

SAINT JOHNS    CLEAR     50  19  29 NW7       30.27R
6HR MIN TEMP:  41; 6HR MAX TEMP:  52;

WINDOW ROCK    CLEAR     45  19  35 E12       30.29R
6HR MIN TEMP:  40; 6HR MAX TEMP:  53;

SHOW LOW       CLEAR     46  19  34 N10       30.31S
$$

AZZ540-542>544-546-548-180100-
GREATER PHOENIX AREA

CITY           SKY/WX    TMP DP  RH WIND       PRES   REMARKS
PHOENIX        PTCLDY    72  24  16 S6        30.11F
6HR MIN TEMP:  62; 6HR MAX TEMP:  72;

BUCKEYE        CLEAR     66  32  28 S3        30.14S
GLENDALE       PTCLDY    72  25  17 CALM      30.14S
LUKE AFB       CLEAR     69  25  19 CALM      30.12S
6HR MIN TEMP:  61; 6HR MAX TEMP:  70;

DEER VALLEY    CLEAR     68  24  19 CALM      30.13S
6HR MIN TEMP:  63; 6HR MAX TEMP:  69;

SCOTTSDALE     CLEAR     69  26  20 W3        30.14F
6HR MIN TEMP:  61; 6HR MAX TEMP:  70;

MESA-FALCON    PTCLDY    66  27  22 SW5       30.14S
MESA-GATEWAY   PTCLDY    68  23  18 CALM      30.15R
CHANDLER       CLEAR     70  23  17 VRB5      30.13F
$$

AZZ539-553-180100-
SOUTHWEST MARICOPA COUNTY AND PINAL COUNTY

CITY           SKY/WX    TMP DP  RH WIND       PRES   REMARKS
CASA GRANDE    NOT AVBL
GILA BEND      PTCLDY    71  21  15 N10       30.12S
6HR MIN TEMP:  62; 6HR MAX TEMP:  72;

$$

AZZ503-504-507>509-180100-
SOUTHEAST ARIZONA

CITY           SKY/WX    TMP DP  RH WIND       PRES   REMARKS
TUCSON         CLEAR     69  21  16 N7        30.16R
6HR MIN TEMP:  57; 6HR MAX TEMP:  70;

DAVIS-MONTHAN  CLEAR     67  21  17 NW6       30.14R
6HR MIN TEMP:  56; 6HR MAX TEMP:  72;

RYAN FIELD     CLEAR     68  21  17 NW10      30.15R
NOGALES        CLEAR     67  19  16 NW10      30.14R
6HR MIN TEMP:  56; 6HR MAX TEMP:  72;

SIERRA VISTA   CLEAR     57  17  20 NE7       30.22R
6HR MIN TEMP:  48; 6HR MAX TEMP:  60;

DOUGLAS        CLEAR     56  20  24 E5        30.20F
6HR MIN TEMP:  43; 6HR MAX TEMP:  58;

SAFFORD        CLEAR     53  16  23 S8        30.24R
6HR MIN TEMP:  43; 6HR MAX TEMP:  55;

$$

AZZ532-180100-
SOUTHWEST ARIZONA

CITY           SKY/WX    TMP DP  RH WIND       PRES   REMARKS
YUMA           CLEAR     76  32  20 N3        30.12S
6HR MIN TEMP:  67; 6HR MAX TEMP:  77;

$$

CAZ041-043-047-048-061-525>527-560>570-180100-
SOUTHERN CALIFORNIA

CITY           SKY/WX    TMP DP  RH WIND       PRES   REMARKS
DOWNTOWN L.A.  SUNNY     73  52  47 CALM      30.09S
6HR MIN TEMP:  67; 6HR MAX TEMP:  78;

L.A. AIRPORT   MOSUNNY   66  52  60 W10       30.11R
6HR MIN TEMP:  65; 6HR MAX TEMP:  74;

SAN DIEGO      MOSUNNY   65  57  75 NW7       30.11S
6HR MIN TEMP:  63; 6HR MAX TEMP:  72;

BURBANK        SUNNY     79  39  23 VRB3      30.09F
6HR MIN TEMP:  68; 6HR MAX TEMP:  80;

ONTARIO        MOSUNNY   78  35  21 W3        30.11S
6HR MIN TEMP:  64; 6HR MAX TEMP:  80;

RIVERSIDE      SUNNY     79  42  26 W5        30.11R
6HR MIN TEMP:  67; 6HR MAX TEMP:  82;

PALM SPRINGS   SUNNY     77  38  24 VRB6      30.15R
6HR MIN TEMP:  69; 6HR MAX TEMP:  78;

EL CENTRO NAS  MOSUNNY   77  34  21 CALM      30.14S
6HR MIN TEMP:  67; 6HR MAX TEMP:  78;

IMPERIAL       SUNNY     77  34  21 NE5       30.12R
6HR MIN TEMP:  66; 6HR MAX TEMP:  78;

BLYTHE         CLEAR     73  38  27 S5        30.14R
6HR MIN TEMP:  62; 6HR MAX TEMP:  76;

NEEDLES        PTCLDY    74  33  22 N8        30.16R
6HR MIN TEMP:  65; 6HR MAX TEMP:  74;

$$

NVZ020-UTZ003-180100-
SOUTHERN NEVADA-UTAH

CITY           SKY/WX    TMP DP  RH WIND       PRES   REMARKS
LAS VEGAS      MOCLDY    66  34  30 CALM      30.24R
6HR MIN TEMP:  58; 6HR MAX TEMP:  66;

SALT LAKE CITY MOCLDY    47  32  56 NW10      30.36R
6HR MIN TEMP:  42; 6HR MAX TEMP:  55;

$$

NMZ009-TXZ055-180100-
NEW MEXICO-WEST TEXAS

CITY           SKY/WX    TMP DP  RH WIND       PRES   REMARKS
ALBUQUERQUE    MOCLDY    40  15  36 S3        30.29F
6HR MIN TEMP:  30; 6HR MAX TEMP:  41;

EL PASO        CLOUDY    42  18  37 N5        30.29S
6HR MIN TEMP:  35; 6HR MAX TEMP:  43;

$$


........................KEY........................
SKY/WX - SKY CONDITION/WEATHER
TMP    - TEMPERATURE IN FAHRENHEIT
DP     - DEW POINT IN FAHRENHEIT
RH     - RELATIVE HUMIDITY IN PERCENT
WIND   - DIRECTION AND SPEED IN MILES PER HOUR (MPH)
VRB    - VARIABLE WIND DIRECTION
PRES   - MEAN SEA LEVEL PRESSURE IN INCHES OF MERCURY
         F - FALLING PRESSURE   R - RISING PRESSURE
         S - STEADY PRESSURE
VSB    - VISIBILITY IN MILES
HX     - HEAT INDEX IN FAHRENHEIT
WCI    - WIND CHILL INDEX IN FAHRENHEIT
TC     - TEMPERATURE IN CELSIUS WHICH IS ALSO KNOWN AS
         TEMPERATURE IN CENTIGRADE
AFB    - AIR FORCE BASE
         LUKE AFB IS LUKE AIR FORCE BASE
         DAVIS-MONTHAN IS DAVIS-MONTHAN AIR FORCE BASE
NAS    - NAVAL AIR STATION
         EL CENTRO NAS IS EL CENTRO NAVAL AIR STATION
N/A    - NOT AVAILABLE





USA.gov is the U.S. government's official web portal to all federal, state and local government web resources and services.